Albany, NY

5:25 PM EDT on April 20, 2018 (GMT -0400)
Albany International

Weather History for KALB - June, 2013

Change the Weather History Date:

Sunday, June 30, 2013

  Actual Average Record
Temperature  
Mean Temperature 75 °F 71 °F  
Max Temperature 84 °F 81 °F 98 °F (1964)
Min Temperature 65 °F 60 °F 47 °F (1938)
Degree Days  
Heating Degree Days 0 0  
Month to date heating degree days 55 53  
Since 1 June heating degree days 55 52  
Since 1 July heating degree days 6316 6680  
Cooling Degree Days 10 6  
Month to date cooling degree days 143 118  
Year to date cooling degree days 192 148  
Since 1 June cooling degree days 143 118  
Growing Degree Days 24 (Base 50)    
Moisture  
Dew Point 66 °F    
Average Humidity 78    
Maximum Humidity 93    
Minimum Humidity 62    
Precipitation  
Precipitation 0.57 in 0.12 in 2.45 in (1976)
Month to date precipitation 8.68 3.79  
Year to date precipitation 23.42 18.57  
Sea Level Pressure  
Sea Level Pressure 29.81 in    
Wind  
Wind Speed 4 mph (SSE)    
Max Wind Speed 21 mph    
Max Gust Speed 26 mph    
Visibility 10 miles    
Events Rain , Thunderstorm    
T = Trace of Precipitation, MM = Missing Value Source: NWS Daily Summary

Daily Weather History Graph

Daily Weather History Graph

Search for Another Location

Airport or City:

Astronomy

Jun. 30, 2013 Rise Set
Actual Time 5:20 AM EDT 8:37 PM EDT
Civil Twilight 4:45 AM EDT 9:12 PM EDT
Nautical Twilight 4:00 AM EDT 9:57 PM EDT
Astronomical Twilight 3:04 AM EDT 10:52 PM EDT
Moon 12:24 AM EDT (6/30) 1:43 PM EDT (6/30)
Length of Visible Light 16h 26m
Length of Day
15h 16m
Last Quarter, 45% of the Moon is Illuminated
Jun 30
Last Quarter
Jul 8
New
Jul 15
First Quarter
Jul 22
Full
Jul 29
Last Quarter

Hourly Weather History & Observations

Time (EDT) Temp. Heat Index Dew Point Humidity Pressure Visibility Wind Dir Wind Speed Gust Speed Precip Events Conditions
12:51 AM 71.1 °F - 64.9 °F 81% 29.70 in 10.0 mi WNW 3.5 mph - N/A   Mostly Cloudy
1:51 AM 70.0 °F - 64.9 °F 84% 29.71 in 10.0 mi Calm Calm - N/A   Mostly Cloudy
2:51 AM 70.0 °F - 63.0 °F 78% 29.72 in 10.0 mi Calm Calm - N/A   Mostly Cloudy
3:51 AM 68.0 °F - 63.0 °F 84% 29.73 in 10.0 mi Calm Calm - N/A   Partly Cloudy
4:51 AM 66.0 °F - 63.0 °F 90% 29.74 in 10.0 mi Calm Calm - N/A   Mostly Cloudy
5:51 AM 64.9 °F - 63.0 °F 93% 29.76 in 10.0 mi Calm Calm - N/A   Mostly Cloudy
6:51 AM 70.0 °F - 64.0 °F 81% 29.78 in 10.0 mi Calm Calm - N/A   Scattered Clouds
7:51 AM 73.0 °F - 64.0 °F 73% 29.80 in 10.0 mi Calm Calm - N/A   Mostly Cloudy
8:51 AM 73.9 °F - 66.9 °F 79% 29.81 in 10.0 mi Calm Calm - N/A   Mostly Cloudy
9:51 AM 75.9 °F - 66.0 °F 71% 29.81 in 10.0 mi East 4.6 mph - N/A   Mostly Cloudy
10:51 AM 78.1 °F - 66.0 °F 66% 29.81 in 10.0 mi South 6.9 mph - N/A   Mostly Cloudy
11:51 AM 81.0 °F 83.3 °F 66.9 °F 62% 29.81 in 10.0 mi ESE 3.5 mph - N/A   Mostly Cloudy
12:51 PM 81.0 °F 82.7 °F 64.9 °F 58% 29.81 in 10.0 mi Variable 3.5 mph - 0.00 in Rain Light Rain
1:46 PM 82.4 °F 84.6 °F 66.2 °F 58% 29.80 in 10.0 mi Calm Calm - 0.00 in Thunderstorm Thunderstorm
1:51 PM 82.9 °F 85.4 °F 66.9 °F 58% 29.80 in 10.0 mi Calm Calm - 0.00 in Thunderstorm Thunderstorm
2:51 PM 73.0 °F - 64.0 °F 73% 29.81 in 3.0 mi SE 10.4 mph 26.5 mph 0.32 in Rain , Thunderstorm Light Thunderstorms and Rain
3:02 PM 73.4 °F - 66.2 °F 78% 29.81 in 7.0 mi SE 3.5 mph - 0.00 in   Mostly Cloudy
3:31 PM 77.0 °F - 66.2 °F 69% 29.81 in 10.0 mi Calm Calm - 0.00 in Thunderstorm Thunderstorm
3:51 PM 75.9 °F - 70.0 °F 82% 29.82 in 7.0 mi South 13.8 mph - 0.01 in Rain , Thunderstorm Light Thunderstorms and Rain
4:27 PM 71.6 °F - 66.2 °F 83% 29.82 in 7.0 mi SE 4.6 mph - 0.21 in Rain Light Rain
4:51 PM 72.0 °F - 66.9 °F 84% 29.83 in 10.0 mi Calm Calm - 0.21 in   Overcast
5:51 PM 72.0 °F - 68.0 °F 87% 29.83 in 10.0 mi South 11.5 mph - 0.03 in Rain Light Rain
6:51 PM 72.0 °F - 66.9 °F 84% 29.85 in 10.0 mi South 16.1 mph 23.0 mph 0.00 in   Mostly Cloudy
7:51 PM 71.1 °F - 66.9 °F 87% 29.87 in 10.0 mi SSE 6.9 mph - N/A   Mostly Cloudy
8:51 PM 70.0 °F - 66.9 °F 90% 29.89 in 10.0 mi Calm Calm - N/A   Mostly Cloudy
9:51 PM 70.0 °F - 66.9 °F 90% 29.90 in 10.0 mi ESE 4.6 mph - 0.00 in Rain Light Rain
10:51 PM 70.0 °F - 66.0 °F 87% 29.90 in 10.0 mi Calm Calm - 0.00 in   Mostly Cloudy
11:51 PM 70.0 °F - 66.9 °F 90% 29.91 in 10.0 mi South 3.5 mph - N/A   Mostly Cloudy